Location: L�gaud
(45.7115°N, 1.7775°E)
Time: 21:00:08
(UTC+00:00)

SPOT 3 Rocket - Pass Details

Date: 03 March 2021
Orbit: 778 x 795 km, 98.7° (Epoch: 13 April)

Event Time Altitude Azimuth Distance (km) Brightness Sun altitude
Exits shadow 20:18:41 58° 13° (NNE) 926 3.8 -27.6°
Drops below altitude 10° 20:22:58 10° 350° (N) 2,373 6.4 -28.3°
Sets 20:25:18 0° 348° (NNW) 3,308 7.2 -28.7°
